DW8673 Jerrabomberra AU current weather conditions

sailwx.info

Wind from 120

Air temperature 5.0° C
Dewpoint -7.2° C

Last reported at 2016-Jun-25 07:48 UTC.
Time now 2016-Jun-25 08:53 UTC

Location: S 35°23' E 149°12'.
View on Google Maps.

See reports from other nearby stations

  
Tides and Currents Weather Stations Pressure Air Temp Water Temp Dewpoint Dewpoint Depression Visibility Wind Speed Wind Dir Waves Ship Positions
date/time (UTC)wind fromknots sea level pressurealtimeterstation pressurevisibilityair tempwater tempwave heightnotes
2016-Jun-25 07:48 120 5.0
2016-Jun-25 07:43 090 5.0
2016-Jun-25 07:38 096 5.6
2016-Jun-25 07:33 041 5.6
2016-Jun-25 07:18 315 6.7
2016-Jun-25 07:13 319 0 gusting 1 6.7
2016-Jun-25 07:08 299 0 gusting 1 7.2
2016-Jun-25 07:03 274 0 gusting 4 7.2
2016-Jun-25 06:48 337 1 gusting 4 9.4
2016-Jun-25 06:43 308 1 gusting 4 10.0
2016-Jun-25 06:38 302 2 gusting 4 10.6
2016-Jun-25 06:33 329 2 gusting 4 10.6
2016-Jun-25 06:18 352 2 gusting 5 11.7
2016-Jun-25 06:13 309 2 gusting 5 11.7
2016-Jun-25 06:08 320 2 gusting 4 11.7
2016-Jun-25 06:03 349 2 gusting 6 11.7
2016-Jun-25 05:48 267 2 gusting 5 12.2
2016-Jun-25 05:43 333 3 gusting 6 12.2
2016-Jun-25 05:38 313 2 gusting 6 12.2
2016-Jun-25 05:33 323 3 gusting 5 12.8
2016-Jun-25 05:18 302 2 gusting 5 12.8
2016-Jun-25 05:13 347 2 gusting 5 12.8
2016-Jun-25 05:08 019 2 gusting 6 13.3
2016-Jun-25 05:03 308 2 gusting 5 13.3
2016-Jun-25 04:48 126 0 gusting 1 14.4
2016-Jun-25 04:43 257 1 gusting 4 14.4
2016-Jun-25 04:38 077 1 gusting 5 13.9
2016-Jun-25 04:33 258 2 gusting 5 13.9
2016-Jun-25 04:18 264 2 gusting 5 14.4
2016-Jun-25 04:13 268 3 gusting 6 13.9
2016-Jun-25 04:08 200 0 gusting 2 14.4
2016-Jun-25 04:03 176 1 gusting 5 14.4
2016-Jun-25 03:48 329 1 gusting 5 14.4
2016-Jun-25 03:43 283 1 gusting 2 13.9
2016-Jun-25 03:38 219 1 gusting 2 13.9
2016-Jun-25 03:33 196 1 gusting 5 13.9
2016-Jun-25 03:18 154 1 gusting 4 13.9
2016-Jun-25 03:13 280 0 gusting 4 13.9
2016-Jun-25 03:08 13.9
2016-Jun-25 03:03 229 1 gusting 5 13.9
2016-Jun-25 02:48 108 2 gusting 5 13.3
2016-Jun-25 02:43 264 0 gusting 2 13.3
2016-Jun-25 02:38 292 0 gusting 1 13.3
2016-Jun-25 02:33 104 1 gusting 6 12.8
2016-Jun-25 02:18 252 1 gusting 5 13.3
2016-Jun-25 02:13 165 1 gusting 4 12.8
2016-Jun-25 02:08 220 1 gusting 5 12.8
2016-Jun-25 02:03 075 1 gusting 6 12.2
2016-Jun-25 01:48 086 1 gusting 2 12.2
2016-Jun-25 01:43 142 2 gusting 5 11.7
2016-Jun-25 01:38 216 1 gusting 5 11.7
2016-Jun-25 01:33 267 3 gusting 5 11.7
2016-Jun-25 01:18 291 1 gusting 1 11.7
2016-Jun-25 01:13 252 1 gusting 2 11.1
2016-Jun-25 01:08 218 0 gusting 4 10.6
2016-Jun-25 01:03 248 1 gusting 5 10.6
2016-Jun-25 00:48 312 2 gusting 2 10.0
2016-Jun-25 00:43 238 0 gusting 4 10.0
2016-Jun-25 00:38 125 2 gusting 5 10.0
2016-Jun-25 00:33 115 1 gusting 5 10.0
2016-Jun-25 00:18 261 2 gusting 6 8.9
2016-Jun-25 00:13 262 1 gusting 5 8.9
2016-Jun-25 00:08 253 1 gusting 5 8.3
2016-Jun-25 00:03 283 1 gusting 4 7.8
2016-Jun-24 23:48 351 1 gusting 2 6.7
2016-Jun-24 23:43 115 0 gusting 1 6.7
2016-Jun-24 23:38 338 0 gusting 0 6.7
2016-Jun-24 23:33 315 1 gusting 2 5.6
2016-Jun-24 23:18 307 1 gusting 2 4.4
2016-Jun-24 23:13 106 0 gusting 2 3.9
2016-Jun-24 23:08 284 1 gusting 1 3.3
2016-Jun-24 23:03 345 1 gusting 2 2.8
2016-Jun-24 22:48 314 1 gusting 1 1.1
2016-Jun-24 22:43 303 0 gusting 0 0.6
2016-Jun-24 22:38 292 -0.0
2016-Jun-24 22:33 109 -0.0
2016-Jun-24 22:18 035 -1.1
2016-Jun-24 22:13 045 -1.1
2016-Jun-24 22:08 071 -1.7
2016-Jun-24 22:03 099 -1.7
2016-Jun-24 21:48 134 -2.2
2016-Jun-24 21:43 100 -2.2
2016-Jun-24 21:38 112 -2.2
2016-Jun-24 21:33 135 -2.8
2016-Jun-24 21:18 090 -2.2
2016-Jun-24 21:13 092 0 gusting 0 -2.2
2016-Jun-24 21:08 112 -2.2
2016-Jun-24 21:03 149 -2.2
2016-Jun-24 20:48 090 -2.2
2016-Jun-24 20:43 135 -1.7
2016-Jun-24 20:38 093 0 gusting 1 -2.2
2016-Jun-24 20:33 279 0 gusting 1 -1.7
2016-Jun-24 20:18 109 -2.2
2016-Jun-24 20:13 100 -2.2
2016-Jun-24 20:08 107 0 gusting 1 -2.2
2016-Jun-24 20:03 135 -2.2
2016-Jun-24 19:48 219 -1.7
2016-Jun-24 19:43 090 -2.2
2016-Jun-24 19:38 116 -2.2
2016-Jun-24 19:33 090 -2.2
2016-Jun-24 19:18 248 -2.2
2016-Jun-24 19:13 126 -1.7
2016-Jun-24 19:08 135 -1.7
2016-Jun-24 19:03 106 -1.7
2016-Jun-24 18:48 112 -1.7
2016-Jun-24 18:43 090 -1.7
2016-Jun-24 18:38 090 -1.7
2016-Jun-24 18:33 230 -1.1
2016-Jun-24 18:13 090 -0.6
2016-Jun-24 18:08 099 -0.6
2016-Jun-24 18:03 091 0 gusting 1 -0.6
2016-Jun-24 17:48 105 -0.6
2016-Jun-24 17:43 076 -0.6
2016-Jun-24 17:38 070 0 gusting 1 -1.1
2016-Jun-24 17:33 119 -1.1
2016-Jun-24 17:18 090 -1.1
2016-Jun-24 17:13 112 -1.1
2016-Jun-24 17:08 090 -1.1
2016-Jun-24 17:03 090 -1.1
2016-Jun-24 16:48 202 -0.6
2016-Jun-24 16:43 241 0 gusting 1 -0.6
2016-Jun-24 16:38 251 0 gusting 1 -0.6
2016-Jun-24 16:33 184 -0.6
2016-Jun-24 16:18 225 -0.0
2016-Jun-24 16:13 315 0 gusting 0 -0.0
2016-Jun-24 16:08 112 -0.0
2016-Jun-24 16:03 112 -0.0
2016-Jun-24 15:48 270 0 gusting 1 0.6
2016-Jun-24 15:43 264 0.6
2016-Jun-24 15:38 230 0 gusting 1 1.1
2016-Jun-24 15:33 154 0 gusting 2 1.1
2016-Jun-24 15:18 055 0 gusting 1 1.1
2016-Jun-24 15:13 097 0.6
2016-Jun-24 15:08 083 0 gusting 0 0.6
2016-Jun-24 15:03 019 0 gusting 1 0.6
2016-Jun-24 14:48 086 0 gusting 1 0.6
2016-Jun-24 14:43 086 0 gusting 1 0.6
2016-Jun-24 14:38 094 0 gusting 1 0.6
2016-Jun-24 14:33 087 0 gusting 1 0.6
2016-Jun-24 14:18 099 0.6
2016-Jun-24 14:13 090 0.6
2016-Jun-24 14:08 112 0 gusting 0 0.6
2016-Jun-24 14:03 109 0.6
2016-Jun-24 13:48 338 1.1
2016-Jun-24 13:43 032 1.1
2016-Jun-24 13:38 347 1.1
2016-Jun-24 13:33 351 1.1
2016-Jun-24 13:18 068 1.7
2016-Jun-24 13:13 083 1.7
2016-Jun-24 13:08 060 1.7
2016-Jun-24 13:03 089 0 gusting 1 1.7
2016-Jun-24 12:48 081 0 gusting 1 2.2
2016-Jun-24 12:43 093 0 gusting 0 2.2
2016-Jun-24 12:38 058 0 gusting 1 2.2
2016-Jun-24 12:33 078 0 gusting 2 2.2
2016-Jun-24 12:18 323 0 gusting 1 2.2
2016-Jun-24 12:13 104 0 gusting 1 2.2
2016-Jun-24 12:08 301 0 gusting 1 1.7
2016-Jun-24 12:03 342 0 gusting 1 1.7
2016-Jun-24 11:48 076 1.7
2016-Jun-24 11:43 087 1.7
2016-Jun-24 11:38 252 0 gusting 1 2.2
2016-Jun-24 11:33 237 0 gusting 1 2.2
2016-Jun-24 11:18 243 0 gusting 1 2.2
2016-Jun-24 11:13 310 2.8
2016-Jun-24 11:08 290 2.8
2016-Jun-24 11:03 269 0 gusting 2 2.8
2016-Jun-24 10:48 245 2 gusting 5 3.9
2016-Jun-24 10:43 308 1 gusting 5 3.9
2016-Jun-24 10:38 262 2 gusting 6 3.9
2016-Jun-24 10:33 248 2 gusting 6 3.9
2016-Jun-24 10:18 276 4 gusting 6 3.9
2016-Jun-24 10:13 270 3 gusting 8 3.9
2016-Jun-24 10:08 287 3 gusting 6 3.9
2016-Jun-24 10:03 287 2 gusting 8 3.9
2016-Jun-24 09:48 320 4 gusting 8 3.9
2016-Jun-24 09:43 261 2 gusting 5 3.9
2016-Jun-24 09:38 285 2 gusting 6 3.9
2016-Jun-24 09:33 311 2 gusting 6 3.9
2016-Jun-24 09:18 322 4 gusting 6 3.9
2016-Jun-24 09:13 279 3 gusting 7 3.9
2016-Jun-24 09:08 285 4 gusting 6 3.9
2016-Jun-24 09:03 264 2 gusting 10 3.9
2016-Jun-24 08:48 272 3 gusting 6 3.9
2016-Jun-24 08:43 291 3 gusting 6 3.9
2016-Jun-24 08:38 300 4 gusting 6 3.9
2016-Jun-24 08:33 292 4 gusting 6 3.9
2016-Jun-24 08:18 300 3 gusting 6 3.9
2016-Jun-24 08:13 282 4 gusting 7 3.9
2016-Jun-24 08:08 296 2 gusting 6 4.4
2016-Jun-24 08:03 285 4 gusting 6 3.9
2016-Jun-24 07:48 234 2 gusting 5 3.9
2016-Jun-24 07:43 251 1 gusting 4 3.9
2016-Jun-24 07:38 259 3.9
2016-Jun-24 07:33 248 3.9
2016-Jun-24 07:18 235 2 gusting 4 4.4
2016-Jun-24 07:13 297 1 gusting 5 4.4
2016-Jun-24 07:08 271 1 gusting 2 4.4
2016-Jun-24 07:03 227 2 gusting 6 4.4
2016-Jun-24 06:48 275 2 gusting 6 5.0
2016-Jun-24 06:43 259 1 gusting 6 5.6
2016-Jun-24 06:38 274 2 gusting 4 5.6
2016-Jun-24 06:33 240 3 gusting 6 5.6
2016-Jun-24 06:18 285 3 gusting 6 5.6
2016-Jun-24 06:13 285 2 gusting 6 5.6
2016-Jun-24 06:08 283 5 gusting 7 5.6
2016-Jun-24 06:03 285 5 gusting 7 5.6
2016-Jun-24 05:48 285 2 gusting 6 5.6
2016-Jun-24 05:43 297 4 gusting 8 5.6
2016-Jun-24 05:38 314 6 gusting 8 5.6
2016-Jun-24 05:33 303 4 gusting 12 6.1
2016-Jun-24 05:18 256 5 gusting 10 6.7
2016-Jun-24 05:13 251 6 gusting 8 6.7
2016-Jun-24 05:08 293 5 gusting 8 7.2
2016-Jun-24 05:03 313 5 gusting 12 7.2
2016-Jun-24 04:48 272 5 gusting 10 8.9
2016-Jun-24 04:43 261 5 gusting 7 8.9
2016-Jun-24 04:38 267 4 gusting 7 8.3
2016-Jun-24 04:33 320 4 gusting 8 7.8
2016-Jun-24 04:18 224 4 gusting 8 7.8
2016-Jun-24 04:13 272 5 gusting 7 8.3
2016-Jun-24 04:08 300 5 gusting 7 8.3
2016-Jun-24 04:03 279 5 gusting 11 8.9
2016-Jun-24 03:48 356 6 gusting 11 10.6
2016-Jun-24 03:43 270 5 gusting 10 10.6
2016-Jun-24 03:38 263 5 gusting 10 10.0
2016-Jun-24 03:33 293 5 gusting 12 9.4
2016-Jun-24 03:18 311 4 gusting 6 8.9
2016-Jun-24 03:13 296 5 gusting 8 8.9
2016-Jun-24 03:08 248 4 gusting 7 9.4
2016-Jun-24 03:03 247 5 gusting 13 10.0
2016-Jun-24 02:48 265 5 gusting 7 10.6
2016-Jun-24 02:43 266 5 gusting 12 10.0
2016-Jun-24 02:38 251 6 gusting 8 10.0
2016-Jun-24 02:33 281 6 gusting 12 10.0
2016-Jun-24 02:18 305 6 gusting 11 9.4
2016-Jun-24 02:13 259 5 gusting 8 9.4
2016-Jun-24 02:08 260 4 gusting 8 8.3
2016-Jun-24 02:03 256 5 gusting 10 8.3
2016-Jun-24 01:48 278 4 gusting 8 8.3
2016-Jun-24 01:43 251 5 gusting 8 8.3
2016-Jun-24 01:38 250 6 gusting 12 8.3
2016-Jun-24 01:33 261 5 gusting 8 8.3
2016-Jun-24 01:18 256 5 gusting 11 8.9
2016-Jun-24 01:13 283 4 gusting 7 8.9
2016-Jun-24 01:08 236 4 gusting 7 8.3
2016-Jun-24 01:03 298 4 gusting 7 8.3
2016-Jun-24 00:48 263 4 gusting 7 8.3
2016-Jun-24 00:43 315 2 gusting 7 7.8
2016-Jun-24 00:38 297 4 gusting 6 7.2
2016-Jun-24 00:33 258 4 gusting 11 7.8
2016-Jun-24 00:18 292 4 gusting 6 7.2
2016-Jun-24 00:13 274 3 gusting 6 6.1
2016-Jun-24 00:08 261 2 gusting 5 5.6
2016-Jun-24 00:03 260 3 gusting 8 5.6
2016-Jun-23 23:48 280 4 gusting 11 5.6
2016-Jun-23 23:43 309 5 gusting 13 5.6
2016-Jun-23 23:38 312 5 gusting 7 5.6
2016-Jun-23 23:33 271 6 gusting 10 6.1
2016-Jun-23 23:18 333 5 gusting 10 6.7
2016-Jun-23 23:13 322 5 gusting 10 6.7
2016-Jun-23 23:08 330 3 gusting 6 6.7
2016-Jun-23 23:03 303 4 gusting 8 6.1
2016-Jun-23 22:48 313 2 gusting 6 5.6
2016-Jun-23 22:43 247 3 gusting 6 5.6
2016-Jun-23 22:38 310 2 gusting 6 5.6
2016-Jun-23 22:33 283 1 gusting 5 5.0
2016-Jun-23 22:18 309 2 gusting 5 5.0
2016-Jun-23 22:13 321 3 gusting 5 5.0
2016-Jun-23 22:08 284 3 gusting 6 5.0
2016-Jun-23 22:03 313 1 gusting 4 5.0
2016-Jun-23 21:48 295 1 gusting 4 5.0
2016-Jun-23 21:43 248 1 gusting 5 5.0
2016-Jun-23 21:38 333 1 gusting 2 5.0
2016-Jun-23 21:33 316 1 gusting 5 5.0
2016-Jun-23 21:18 312 2 gusting 6 5.6
2016-Jun-23 21:13 323 2 gusting 5 5.6
2016-Jun-23 21:08 327 3 gusting 5 5.6
2016-Jun-23 21:03 287 2 gusting 6 5.6
2016-Jun-23 20:48 285 3 gusting 6 5.6
2016-Jun-23 20:43 313 2 gusting 5 5.6
2016-Jun-23 20:38 273 2 gusting 6 5.6
2016-Jun-23 20:33 272 2 gusting 6 5.6
2016-Jun-23 20:18 257 2 gusting 6 5.6
2016-Jun-23 20:13 255 2 gusting 5 5.6
2016-Jun-23 20:08 281 3 gusting 6 5.6
2016-Jun-23 20:03 313 2 gusting 7 5.6
2016-Jun-23 19:48 303 4 gusting 10 6.1
2016-Jun-23 19:43 285 4 gusting 6 6.1
2016-Jun-23 19:38 343 2 gusting 6 6.1
2016-Jun-23 19:33 332 3 gusting 5 6.1
2016-Jun-23 19:18 311 2 gusting 6 6.7
2016-Jun-23 19:13 304 2 gusting 4 6.7
2016-Jun-23 19:08 310 2 gusting 5 6.7
2016-Jun-23 19:03 308 2 gusting 6 6.7
2016-Jun-23 18:48 247 2 gusting 5 7.2
2016-Jun-23 18:43 250 3 gusting 6 7.2
2016-Jun-23 18:38 288 2 gusting 5 7.2
2016-Jun-23 18:33 293 2 gusting 6 7.2
2016-Jun-23 18:13 288 3 gusting 6 7.2
2016-Jun-23 18:08 268 1 gusting 4 7.2
2016-Jun-23 18:03 274 1 gusting 5 7.8
2016-Jun-23 17:48 291 1 gusting 2 7.8
2016-Jun-23 17:43 289 2 gusting 6 7.8
2016-Jun-23 17:38 305 4 gusting 7 7.8
2016-Jun-23 17:33 300 2 gusting 5 7.8
2016-Jun-23 17:18 283 1 gusting 4 7.8
2016-Jun-23 17:13 303 2 gusting 4 7.8
2016-Jun-23 17:08 325 1 gusting 2 7.8
2016-Jun-23 17:03 294 2 gusting 5 7.8
2016-Jun-23 16:48 323 2 gusting 6 7.8
2016-Jun-23 16:43 296 2 gusting 6 7.8
2016-Jun-23 16:38 306 0 gusting 4 7.8
2016-Jun-23 16:33 094 1 gusting 5 7.8
2016-Jun-23 16:18 307 1 gusting 4 7.8
2016-Jun-23 16:13 299 2 gusting 5 7.8
2016-Jun-23 16:08 314 1 gusting 5 7.8
2016-Jun-23 16:03 301 1 gusting 5 7.8
2016-Jun-23 15:48 290 2 gusting 5 7.8
2016-Jun-23 15:43 246 1 gusting 4 7.8
2016-Jun-23 15:38 314 2 gusting 4 7.8
2016-Jun-23 15:33 301 2 gusting 6 7.8
2016-Jun-23 15:18 268 3 gusting 5 8.3
2016-Jun-23 15:13 292 4 gusting 6 8.3
2016-Jun-23 15:08 318 4 gusting 7 8.3
2016-Jun-23 15:03 280 4 gusting 7 8.3
2016-Jun-23 14:48 329 4 gusting 7 8.9
2016-Jun-23 14:43 319 4 gusting 7 8.9
2016-Jun-23 14:38 288 5 gusting 6 8.9
2016-Jun-23 14:33 322 4 gusting 6 8.9
2016-Jun-23 14:18 276 4 gusting 8 8.9
2016-Jun-23 14:13 273 4 gusting 11 9.4
2016-Jun-23 14:08 306 5 gusting 7 9.4
2016-Jun-23 14:03 322 4 gusting 10 9.4
2016-Jun-23 13:48 300 4 gusting 8 9.4
2016-Jun-23 13:43 314 4 gusting 7 9.4
2016-Jun-23 13:38 296 5 gusting 10 9.4
2016-Jun-23 13:33 292 4 gusting 10 9.4
2016-Jun-23 13:18 302 4 gusting 7 9.4
2016-Jun-23 13:13 317 6 gusting 10 9.4
2016-Jun-23 13:08 328 5 gusting 7 9.4
2016-Jun-23 13:03 297 5 gusting 8 9.4
2016-Jun-23 12:48 351 5 gusting 8 9.4
2016-Jun-23 12:43 322 5 gusting 6 9.4
2016-Jun-23 12:38 286 4 gusting 11 9.4
2016-Jun-23 12:33 288 4 gusting 10 9.4
2016-Jun-23 12:18 316 4 gusting 8 9.4
2016-Jun-23 12:13 286 3 gusting 6 9.4
2016-Jun-23 12:08 309 2 gusting 6 9.4
2016-Jun-23 12:03 027 4 gusting 8 9.4
2016-Jun-23 11:48 279 4 gusting 6 9.4
2016-Jun-23 11:43 316 3 gusting 6 9.4
2016-Jun-23 11:38 311 2 gusting 6 9.4
2016-Jun-23 11:33 318 4 gusting 8 9.4
2016-Jun-23 11:18 295 4 gusting 7 9.4
2016-Jun-23 11:13 300 4 gusting 6 9.4
2016-Jun-23 11:08 301 4 gusting 6 8.9
2016-Jun-23 11:03 319 2 gusting 5 8.9
2016-Jun-23 10:48 312 2 gusting 5 8.9
2016-Jun-23 10:43 279 2 gusting 6 8.9
2016-Jun-23 10:38 287 2 gusting 6 8.9
2016-Jun-23 10:33 292 2 gusting 6 8.9
2016-Jun-23 10:18 271 3 gusting 7 8.9
2016-Jun-23 10:13 309 4 gusting 7 8.9
2016-Jun-23 10:08 278 5 gusting 7 8.9
2016-Jun-23 10:03 327 4 gusting 8 8.9
2016-Jun-23 09:48 293 4 gusting 7 8.9
2016-Jun-23 09:43 301 3 gusting 7 8.9
2016-Jun-23 09:38 287 4 gusting 8 8.9
2016-Jun-23 09:33 337 4 gusting 8 8.9
2016-Jun-23 09:18 014 4 gusting 6 8.9
2016-Jun-23 09:13 330 4 gusting 11 8.9
2016-Jun-23 09:08 336 5 gusting 7 8.9
2016-Jun-23 09:03 315 4 gusting 7 8.9
2016-Jun-23 08:48 249 3 gusting 7 8.9
2016-Jun-23 08:43 279 4 gusting 6 8.9
2016-Jun-23 08:38 288 5 gusting 8 8.9
2016-Jun-23 08:33 002 3 gusting 7 8.9
2016-Jun-23 08:18 335 4 gusting 6 8.9
2016-Jun-23 08:13 327 4 gusting 6 8.9
2016-Jun-23 08:08 318 4 gusting 6 8.9
2016-Jun-23 08:03 297 4 gusting 8 8.9